Terminal Aerodrome Forecast
Issued by NWS Wilmington, OH

Current Version | Previous Version | Text Only | Print | Product List | Glossary Off
Versions: 1 2 3 4 5 6 7 8 9 10 11 12 13 14 15 16 17 18 19 20 21 22 23 24 25 26 27 28

000
FTUS41 KILN 222100 AAA
TAFCVG
TAF AMD
KCVG 222110Z 2221/2324 12011KT P6SM OVC110
     FM230200 14012KT P6SM VCSH SCT015 OVC030
     FM230800 15011KT P6SM -SHRA OVC019
      TEMPO 2308/2312 3SM -SHRA OVC008
     FM231200 18010KT P6SM VCSH OVC015
      TEMPO 2314/2316 2SM -SHRA OVC008
     FM231600 18006KT P6SM VCSH OVC010=

USA.gov is the U.S. government's official web portal to all federal, state and local government web resources and services.